Location: Antioch
(38.0049°N, 121.8058°W)
Time: 02:39:42
(UTC+00:00)

Cosmos 2208 Rocket - Pass Details

Date: 19 May 2026
Orbit: 751 x 800 km, 74.0° (Epoch: 9 June)

Event Time Altitude Azimuth Distance (km) Brightness Sun altitude
Exits shadow 08:04:42 17° 72° (ENE) 1,875 6.1 -32.2°
Drops below altitude 10° 08:06:42 10° 51° (NE) 2,319 6.9 -32.2°
Sets 08:09:38 0° 35° (NE) 3,241 8.0 -32.2°
